Terminal Aerodrome Forecast
Issued by NWS Rapid City, SD

Home | Current Version | Previous Version | Text Only | Print | Product List | Glossary Off
Versions: 1 2 3 4 5 6 7 8 9 10 11 12 13 14 15 16 17 18 19 20

034
FTUS43 KUNR 152118 AAB
TAFRAP
TAF AMD
KRAP 152118Z 1521/1618 35013KT P6SM VCSH BKN040 OVC060
     FM160000 36011KT P6SM BKN130=

USA.gov is the U.S. government's official web portal to all federal, state and local government web resources and services.